RYR21F EDDH-EHAM

Flight info

Callsign RYR21F
Flight time N/A
Altitude 30000
Route WSN5G/33 WSN N125 BLUFA
Aircraft B38M/M-SDE1FGHILORVWXY/HB1

Departure

Time N/A
Airport Hamburg Helmut Schmidt Airport (EDDH)

Arrival

Time 2026-04-30 18:15
Airport Amsterdam Airport Schiphol (EHAM)
Time Latitude Longitude Altitude Speed Heading
2026-04-30 17:39 53.51411 9.25758 15090 ft 416 kts 232°
2026-04-30 17:41 53.37241 8.93222 19717 ft 447 kts 233°
2026-04-30 17:42 53.34063 8.84291 20739 ft 451 kts 250°
2026-04-30 17:42 53.30727 8.69405 22287 ft 458 kts 250°
2026-04-30 17:43 53.28519 8.59348 23344 ft 464 kts 250°
2026-04-30 17:44 53.25373 8.43934 24763 ft 471 kts 253°
2026-04-30 17:44 53.22378 8.28188 26107 ft 478 kts 253°
2026-04-30 17:46 53.17328 8.01679 28695 ft 477 kts 253°
2026-04-30 17:47 53.13351 7.80748 30431 ft 470 kts 253°
2026-04-30 17:48 53.09407 7.60232 27464 ft 472 kts 252°
2026-04-30 17:48 53.06372 7.44591 26391 ft 478 kts 252°
2026-04-30 17:49 53.02422 7.24434 26401 ft 452 kts 251°
2026-04-30 17:50 52.98407 7.04613 26388 ft 452 kts 250°
2026-04-30 17:51 52.95430 6.90046 26398 ft 427 kts 250°
2026-04-30 17:52 52.92081 6.76509 26368 ft 418 kts 235°
2026-04-30 17:53 52.84934 6.55768 23909 ft 409 kts 239°
2026-04-30 17:54 52.79480 6.39555 21971 ft 399 kts 239°
2026-04-30 17:55 52.74120 6.23725 20126 ft 391 kts 238°
2026-04-30 17:56 52.68831 6.08200 18375 ft 385 kts 237°
2026-04-30 17:57 52.64925 5.96795 17171 ft 375 kts 237°
2026-04-30 17:58 52.61107 5.85695 15909 ft 368 kts 237°
2026-04-30 17:59 52.56116 5.71267 14345 ft 360 kts 237°
2026-04-30 18:00 52.51215 5.57149 12660 ft 352 kts 239°
2026-04-30 18:00 52.48735 5.45833 11463 ft 348 kts 247°
2026-04-30 18:01 52.47137 5.38399 10720 ft 344 kts 247°
2026-04-30 18:02 52.44758 5.27423 9549 ft 337 kts 246°
2026-04-30 18:02 52.42411 5.16656 8398 ft 331 kts 246°
2026-04-30 18:03 52.40105 5.06128 7472 ft 319 kts 246°
2026-04-30 18:04 52.37978 4.96464 7358 ft 281 kts 245°
2026-04-30 18:05 52.35478 4.85168 7316 ft 259 kts 244°
2026-04-30 18:06 52.33031 4.74101 7019 ft 259 kts 248°
2026-04-30 18:07 52.31944 4.62428 5912 ft 257 kts 257°
2026-04-30 18:08 52.30647 4.54185 5070 ft 243 kts 233°
2026-04-30 18:09 52.26266 4.49241 4360 ft 172 kts 153°
2026-04-30 18:10 52.22787 4.53279 2969 ft 159 kts 96°
2026-04-30 18:11 52.23706 4.60234 1976 ft 147 kts 64°
2026-04-30 18:11 52.25343 4.64458 1365 ft 148 kts 65°
2026-04-30 18:12 52.26881 4.68446 759 ft 134 kts 64°
2026-04-30 18:13 52.27876 4.71042 415 ft 135 kts 62°
2026-04-30 18:13 52.29191 4.74470 24 ft 121 kts 59°
2026-04-30 18:14 52.29937 4.76384 15 ft 57 kts 54°
2026-04-30 18:15 52.30206 4.76689 18 ft 0 kts 28°
2026-04-30 18:15 52.30239 4.76717 18 ft 9 kts 28°
2026-04-30 18:16 52.30361 4.76944 15 ft 17 kts 58°
2026-04-30 18:16 52.30503 4.77318 13 ft 21 kts 58°
2026-04-30 18:17 52.30586 4.77522 16 ft 22 kts 43°
2026-04-30 18:17 52.30732 4.77596 16 ft 24 kts
2026-04-30 18:17 52.31101 4.77627 16 ft 28 kts
2026-04-30 18:18 52.31307 4.77650 17 ft 30 kts
2026-04-30 18:18 52.31507 4.77570 14 ft 32 kts 318°
2026-04-30 18:18 52.31575 4.77226 11 ft 35 kts 266°
2026-04-30 18:18 52.31560 4.76820 13 ft 37 kts 266°
2026-04-30 18:19 52.31546 4.76412 20 ft 36 kts 266°
2026-04-30 18:19 52.31532 4.75987 22 ft 38 kts 267°
2026-04-30 18:19 52.31520 4.75628 13 ft 19 kts 266°
2026-04-30 18:19 52.31499 4.75422 15 ft 16 kts 223°
2026-04-30 18:20 52.31395 4.75413 11 ft 17 kts 176°
2026-04-30 18:20 52.31262 4.75427 8 ft 21 kts 176°
2026-04-30 18:20 52.31132 4.75418 4 ft 16 kts 213°
2026-04-30 18:20 52.31036 4.75312 0 ft 19 kts 171°
2026-04-30 18:21 52.30987 4.75353 0 ft 0 kts 148°